[[{"header":{"parameterUnit":"m.s-1","parameterCategory":1,"la1":30.2991,"la2":30.254,"lo1":-89.0895,"lo2":-89.0444,"dy":0.0017,"dx":0.0017,"nx":28,"ny":28,"refTime":"2025-03-07T09:00:00:Z","depth":0,"parameterNumber":2,"parameterNumberName":"U-component_of_WINDS"},"data":[0,0,0,0,0,0,0,0,0,0,0,0,0,0,0,0,0,0,0,0,0,0,0,0,0,0,0,0,0,0,0,0,0,0,0,0,0,0,0,0,0,0,0,0,0,0,0,0,0,0,0,0,0,0,0,0,0,0,-0.5052,-0.5052,0,-0.5104,-0.5105,-0.5106,-0.5134,-0.5134,-0.5134,-0.5134,-0.5191,-0.5192,-0.5194,0,0,0,0,0,0,0,0,0,0,0,0,0,-0.4979,-0.498,-0.5052,-0.5053,-0.5053,-0.5104,-0.5105,-0.5106,-0.5134,-0.5134,-0.5134,-0.5134,-0.519,-0.5192,-0.5194,0,0,0,0,0,0,0,0,0,0,0,0,0,-0.5019,-0.4981,-0.5052,-0.5073,-0.5076,-0.5104,-0.5105,-0.5106,-0.5134,-0.5134,-0.5134,-0.5134,-0.519,-0.5192,-0.5194,-0.5205,0,0,-0.5201,-0.5202,0,0,0,0,0,0,0,0,-0.5017,-0.5022,-0.507,-0.5072,-0.5075,-0.5113,-0.51,-0.5139,-0.5134,-0.5112,-0.5134,-0.5135,-0.5165,-0.5169,-0.5179,-0.5208,-0.521,-0.5201,-0.5202,-0.5203,-0.5204,0,0,0,0,0,0,0,-0.5014,-0.502,-0.5073,-0.507,-0.5073,-0.5082,-0.5087,-0.5108,-0.5137,-0.5114,-0.5116,-0.5122,-0.5166,-0.5177,-0.518,-0.5211,-0.5201,-0.5203,-0.5204,-0.5205,-0.5254,-0.5254,0,0,0,0,0,0,-0.5007,-0.5017,-0.5071,-0.5074,-0.5045,-0.5083,-0.5089,-0.5101,-0.5137,-0.5143,-0.5122,-0.5123,-0.5173,-0.5178,-0.5182,-0.5199,-0.5203,-0.5205,-0.5206,-0.5254,-0.5254,-0.5254,0,0,0,0,0,0,-0.5006,-0.5012,-0.5069,-0.5046,-0.5054,-0.5084,-0.5096,-0.5102,-0.5112,-0.5143,-0.5149,-0.5127,-0.5173,-0.5179,-0.52,-0.5201,-0.5206,-0.5208,-0.5254,-0.5254,-0.5254,-0.5232,0,0,0,0,0,0,-0.5004,-0.5011,-0.5015,-0.5046,-0.5055,-0.5084,-0.5097,-0.5103,-0.5115,-0.5117,-0.5149,-0.5155,-0.5174,-0.5196,-0.5202,-0.5205,-0.521,-0.5254,-0.5254,-0.5254,-0.5233,-0.5231,-0.523,0,0,0,0,0,-0.5001,-0.5007,-0.5015,-0.5021,-0.5061,-0.5084,-0.509,-0.5111,-0.5115,-0.512,-0.514,-0.5154,-0.52,-0.5198,-0.5205,-0.5208,-0.5254,-0.5254,-0.5254,-0.5233,-0.5231,-0.523,0,0,0,0,0,0,-0.4976,-0.5012,-0.5021,-0.5037,-0.5057,-0.5089,-0.5095,-0.5108,-0.5128,-0.5129,-0.5156,-0.5163,-0.5181,-0.5196,-0.5193,-0.5222,-0.5229,-0.523,-0.5211,-0.5209,-0.5208,-0.5204,-0.5211,0,0,0,0,0,-0.4972,-0.4988,-0.5018,-0.503,-0.5039,-0.5065,-0.5077,-0.5091,-0.5114,-0.5122,-0.5144,-0.5166,-0.5186,-0.5198,-0.5218,-0.5235,-0.5243,-0.5241,-0.5239,-0.5238,-0.5239,-0.525,-0.525,-0.5254,-0.5254,-0.5254,0,0,-0.4965,-0.4986,-0.4995,-0.5025,-0.5043,-0.5059,-0.5073,-0.5089,-0.5102,-0.5125,-0.5146,-0.5162,-0.5189,-0.5207,-0.5217,-0.5221,-0.524,-0.5238,-0.5237,-0.5239,-0.525,-0.525,-0.5249,-0.5254,-0.5254,-0.5254,0,0,-0.496,-0.4977,-0.4989,-0.5006,-0.5032,-0.505,-0.5053,-0.5083,-0.5094,-0.5115,-0.5133,-0.5149,-0.5182,-0.5201,-0.5214,-0.5217,-0.5231,-0.5223,-0.5216,-0.5227,-0.5226,-0.5226,-0.5228,-0.5228,-0.5224,-0.5224,-0.5224,0,-0.4948,-0.4972,-0.4994,-0.5009,-0.5023,-0.5044,-0.5057,-0.5073,-0.5105,-0.5114,-0.5118,-0.5161,-0.518,-0.5204,-0.5204,-0.5214,-0.5219,-0.522,-0.5224,-0.5225,-0.5225,-0.5227,-0.5227,-0.5223,-0.5223,-0.5223,-0.5223,0,-0.4957,-0.4974,-0.498,-0.5009,-0.5024,-0.5038,-0.5062,-0.5074,-0.5088,-0.5105,-0.5127,-0.515,-0.5176,-0.5183,-0.5196,-0.5209,-0.5211,-0.5219,-0.5227,-0.5223,-0.5225,-0.5226,-0.5221,-0.5222,-0.5222,-0.5222,0,0,-0.4938,-0.4979,-0.4981,-0.4995,-0.5025,-0.5039,-0.5055,-0.5079,-0.5089,-0.511,-0.5125,-0.5153,-0.5161,-0.5176,-0.5192,-0.5201,-0.5203,-0.5209,-0.521,-0.5208,-0.522,-0.5213,-0.5214,-0.5212,-0.5212,-0.5213,-0.5218,0,-0.4938,-0.4966,-0.4986,-0.5007,-0.5023,-0.5044,-0.5058,-0.5079,-0.5095,-0.5113,-0.5132,-0.5151,-0.516,-0.517,-0.518,-0.5201,-0.5206,-0.5201,-0.5227,-0.5228,-0.522,-0.5215,-0.5208,-0.5211,-0.5219,-0.5219,-0.5219,0,-0.4942,-0.4962,-0.4984,-0.5013,-0.5021,-0.5033,-0.5057,-0.5072,-0.5097,-0.5109,-0.5126,-0.5142,-0.5161,-0.5167,-0.5193,-0.5189,-0.5201,-0.5213,-0.5214,-0.5218,-0.5223,-0.5219,-0.5213,-0.5214,-0.522,-0.522,-0.522,0,-0.4927,-0.4959,-0.4977,-0.4988,-0.5022,-0.503,-0.5045,-0.507,-0.5083,-0.5105,-0.5114,-0.5137,-0.5151,-0.5169,-0.5192,-0.5193,-0.5216,-0.5224,-0.5228,-0.5227,-0.5232,-0.5231,-0.5228,-0.5238,-0.5238,-0.5238,-0.5238,0,-0.4925,-0.4938,-0.497,-0.4981,-0.4997,-0.502,-0.5035,-0.5052,-0.5074,-0.5089,-0.5109,-0.5123,-0.5152,-0.517,-0.5188,-0.5208,-0.5214,-0.5224,-0.5229,-0.5223,-0.5222,-0.5231,-0.5232,-0.5239,-0.5239,-0.5238,-0.5238,0,-0.4911,-0.4933,-0.4954,-0.4985,-0.4993,-0.5003,-0.503,-0.5042,-0.506,-0.5079,-0.5085,-0.5114,-0.5136,-0.516,-0.5191,-0.5203,-0.5222,-0.5229,-0.5214,-0.5216,-0.5219,-0.5219,-0.5223,-0.5225,-0.5233,-0.5233,-0.5233,0,-0.4909,-0.4919,-0.4951,-0.4962,-0.4977,-0.4995,-0.5008,-0.5032,-0.5046,-0.5075,-0.5084,-0.5107,-0.5127,-0.5162,-0.5186,-0.521,-0.5218,-0.5218,-0.5222,-0.5215,-0.5219,-0.5218,-0.522,-0.5217,-0.5216,-0.5216,-0.5216,0,-0.4903,-0.4914,-0.4932,-0.4955,-0.497,-0.4989,-0.5009,-0.5018,-0.5046,-0.506,-0.5083,-0.5099,-0.513,-0.5153,-0.518,-0.5197,-0.5212,-0.5215,-0.5217,-0.5211,-0.5202,-0.5208,-0.5211,-0.5214,-0.5215,-0.5215,-0.5215,-0.5215,-0.4896,-0.4906,-0.493,-0.495,-0.4968,-0.4986,-0.4999,-0.5018,-0.5037,-0.5064,-0.5077,-0.51,-0.5125,-0.5162,-0.5179,-0.5198,-0.5202,-0.5205,-0.5206,-0.5207,-0.5205,-0.5198,-0.5203,-0.5203,-0.5203,-0.5203,-0.5203,0,-0.4891,-0.4908,-0.4926,-0.4953,-0.4969,-0.4981,-0.5003,-0.5017,-0.5036,-0.5058,-0.5077,-0.5104,-0.5127,-0.5153,-0.5178,-0.5188,-0.5195,-0.5194,-0.5194,-0.5197,-0.52,-0.5195,-0.5187,-0.5187,-0.5187,-0.5187,-0.5187,-0.5187,-0.4891,-0.4909,-0.4923,-0.495,-0.4967,-0.4989,-0.5001,-0.5019,-0.5036,-0.5064,-0.5083,-0.51,-0.5124,-0.5151,-0.5173,-0.518,-0.5189,-0.5185,-0.5194,-0.5196,-0.5197,-0.5198,-0.5195,-0.5187,-0.5187,-0.5191,-0.5191,-0.5191]},{"header":{"parameterUnit":"m.s-1","parameterCategory":1,"la1":30.2991,"la2":30.254,"lo1":-89.0895,"lo2":-89.0444,"dy":0.0017,"dx":0.0017,"nx":28,"ny":28,"refTime":"2025-03-07T09:00:00:Z","depth":0,"parameterNumber":3,"parameterNumberName":"V-component_of_WINDS"},"data":[0,0,0,0,0,0,0,0,0,0,0,0,0,0,0,0,0,0,0,0,0,0,0,0,0,0,0,0,0,0,0,0,0,0,0,0,0,0,0,0,0,0,0,0,0,0,0,0,0,0,0,0,0,0,0,0,0,0,2.251,2.2511,0,2.2586,2.2587,2.2588,2.2558,2.2556,2.2554,2.2552,2.2627,2.2631,2.2635,0,0,0,0,0,0,0,0,0,0,0,0,0,2.2335,2.2338,2.251,2.2511,2.2512,2.2586,2.2587,2.2588,2.2558,2.2556,2.2554,2.2552,2.2626,2.2631,2.2635,0,0,0,0,0,0,0,0,0,0,0,0,0,2.2411,2.234,2.251,2.2506,2.2506,2.2586,2.2587,2.2589,2.2558,2.2556,2.2553,2.2551,2.2625,2.263,2.2635,2.2723,0,0,2.2652,2.2655,0,0,0,0,0,0,0,0,2.2407,2.2418,2.2506,2.2507,2.2507,2.256,2.2553,2.2633,2.2559,2.2539,2.2552,2.2549,2.2607,2.2614,2.2634,2.2726,2.2729,2.2653,2.2656,2.2658,2.266,0,0,0,0,0,0,0,2.2402,2.2414,2.254,2.2507,2.2508,2.2499,2.2507,2.2568,2.2587,2.254,2.2538,2.2548,2.2607,2.2629,2.2635,2.2731,2.2653,2.2657,2.2661,2.2663,2.2896,2.2899,0,0,0,0,0,0,2.2397,2.241,2.2538,2.2543,2.2449,2.2504,2.2513,2.2546,2.2586,2.259,2.255,2.2546,2.262,2.2629,2.2638,2.2741,2.2658,2.2664,2.2667,2.2893,2.2897,2.29,0,0,0,0,0,0,2.2393,2.2408,2.2535,2.2476,2.2491,2.251,2.2547,2.2548,2.257,2.2593,2.2596,2.2569,2.2619,2.263,2.2702,2.2743,2.2666,2.2671,2.289,2.2894,2.2898,2.295,0,0,0,0,0,0,2.2388,2.2407,2.2442,2.2477,2.2495,2.2599,2.255,2.2552,2.258,2.2576,2.2612,2.2615,2.2617,2.2694,2.2707,2.2749,2.2675,2.2886,2.2892,2.2897,2.2944,2.2955,2.2964,0,0,0,0,0,2.2382,2.2453,2.2444,2.2459,2.2538,2.2601,2.2611,2.2613,2.2584,2.2618,2.2632,2.2614,2.2737,2.2701,2.2716,2.2761,2.2883,2.289,2.2897,2.294,2.2953,2.2964,0,0,0,0,0,0,2.2421,2.2457,2.2447,2.2532,2.2564,2.2596,2.2639,2.2627,2.2667,2.2662,2.2661,2.2669,2.2743,2.2759,2.2719,2.2846,2.2805,2.2815,2.2833,2.2846,2.2856,2.285,2.268,0,0,0,0,0,2.244,2.249,2.2518,2.259,2.2606,2.262,2.2648,2.2646,2.2679,2.2692,2.2712,2.2743,2.2788,2.2818,2.2861,2.2946,2.2953,2.2984,2.2994,2.3003,2.3011,2.3055,2.3069,2.2921,2.2921,2.2921,0,0,2.2479,2.2505,2.2536,2.2598,2.2623,2.2673,2.2632,2.2686,2.2723,2.27,2.2768,2.2784,2.2819,2.2897,2.2932,2.2913,2.3053,2.3011,2.3017,2.3021,2.3063,2.3077,2.309,2.2926,2.2925,2.2924,0,0,2.2575,2.2601,2.2662,2.2688,2.2725,2.2734,2.2748,2.2782,2.2792,2.2861,2.2844,2.2887,2.2965,2.299,2.3013,2.3117,2.3102,2.3131,2.3184,2.3227,2.3239,2.3249,2.3285,2.3298,2.3139,2.314,2.314,0,2.2619,2.2694,2.2695,2.2751,2.2778,2.276,2.2822,2.2846,2.2896,2.2914,2.2891,2.2988,2.3011,2.3094,2.3119,2.3139,2.3154,2.3127,2.3237,2.3248,2.3257,2.3291,2.3305,2.3143,2.3143,2.3142,2.3142,0,2.2745,2.2797,2.2842,2.2891,2.2923,2.2982,2.299,2.3023,2.3018,2.3028,2.3098,2.3124,2.3171,2.319,2.3187,2.3273,2.3259,2.3237,2.3196,2.3275,2.3306,2.332,2.3148,2.3146,2.3145,2.3145,0,0,2.2869,2.2916,2.2933,2.2954,2.2994,2.3033,2.309,2.3137,2.3164,2.3198,2.3245,2.3311,2.3291,2.3317,2.3315,2.3353,2.3432,2.3326,2.3327,2.3344,2.3526,2.3542,2.3557,2.3422,2.3425,2.3427,2.3523,0,2.2967,2.3068,2.307,2.3161,2.3209,2.3192,2.3241,2.3269,2.328,2.3321,2.3332,2.3379,2.3349,2.3364,2.3401,2.3415,2.3468,2.3408,2.3464,2.3466,2.3455,2.3574,2.3591,2.3681,2.3536,2.3538,2.3539,0,2.3095,2.3134,2.3231,2.3262,2.3282,2.3326,2.3368,2.3408,2.3439,2.3444,2.3473,2.3465,2.3521,2.3479,2.3555,2.3514,2.3537,2.3547,2.355,2.3555,2.3507,2.3581,2.371,2.3723,2.3559,2.3558,2.3556,0,2.3174,2.325,2.3318,2.3336,2.3375,2.3406,2.3423,2.3452,2.348,2.3516,2.3534,2.3576,2.3599,2.3631,2.3634,2.3604,2.3711,2.3669,2.3715,2.3715,2.3738,2.3736,2.3872,2.3755,2.3754,2.3754,2.3754,0,2.3283,2.3343,2.3353,2.3395,2.346,2.3461,2.3526,2.354,2.3566,2.3608,2.3596,2.3636,2.3638,2.3678,2.3681,2.3743,2.3754,2.3758,2.3758,2.3759,2.3758,2.3773,2.3767,2.3758,2.3757,2.3756,2.3756,0,2.3383,2.3392,2.3464,2.3495,2.3503,2.355,2.3575,2.3614,2.3623,2.3677,2.369,2.3704,2.3751,2.3757,2.3812,2.3814,2.3888,2.3882,2.3878,2.3876,2.3922,2.3917,2.4071,2.409,2.3961,2.3962,2.3964,0,2.3451,2.3497,2.3532,2.3559,2.3578,2.3624,2.3652,2.3654,2.3683,2.3721,2.3755,2.3801,2.3837,2.3913,2.3927,2.3969,2.3963,2.4014,2.3969,2.3968,2.3962,2.3959,2.3962,2.4022,2.4023,2.4025,2.4026,0,2.3571,2.3574,2.3615,2.3658,2.3691,2.3725,2.3756,2.378,2.3785,2.3819,2.3867,2.3895,2.3951,2.3996,2.4037,2.4053,2.404,2.404,2.4052,2.4053,2.4048,2.405,2.39,2.4036,2.4035,2.4034,2.4034,2.4033,2.3657,2.3695,2.3726,2.3772,2.3796,2.3825,2.3862,2.3876,2.3916,2.3962,2.3961,2.4013,2.4042,2.4095,2.4114,2.4154,2.4137,2.4156,2.416,2.4165,2.4169,2.4043,2.4162,2.4161,2.4161,2.4161,2.4161,0,2.3775,2.3794,2.3836,2.388,2.3916,2.3901,2.3935,2.3965,2.4012,2.404,2.4076,2.413,2.4174,2.4191,2.4233,2.4261,2.4256,2.4272,2.427,2.4273,2.4182,2.4166,2.4276,2.4276,2.4276,2.4275,2.4275,2.4275,2.3841,2.3905,2.3911,2.3986,2.4004,2.4056,2.4076,2.4103,2.4125,2.4186,2.4222,2.4234,2.4257,2.43,2.4339,2.4342,2.4358,2.4376,2.4377,2.4292,2.428,2.4269,2.4254,2.438,2.438,2.4465,2.4466,2.4466]}]]